Wetbulb
57.52 57.09 56.99 58.26 59.70 59.21 59.00 59.07 57.38 56.60 56.73 55.70 54.12 52.49 52.30 52.50 50.64 49.87 49.83 50.54 48.86 47.84 46.50 45.64 44.86 44.18 42.74 41.96 41.94 40.50 39.77 38.70 38.26 38.08 37.59 36.94 36.75 35.96 35.46 35.56 35.59 36.46 37.04
56.10 56.84 56.63 58.12 59.50 59.68 59.64 58.81 58.11 57.00 57.29 57.10 54.71 53.90 52.89 51.41 49.41 48.56 48.30 48.30 47.51 46.67 46.37 44.45 43.23 42.56 41.55 40.64 40.65 40.28 39.08 38.67 37.63 36.30 34.45 32.64 35.06 35.79 35.33 34.43 35.14 34.28 35.39
54.89 56.46 57.63 58.12 58.67 59.04 59.01 58.96 58.09 57.33 57.46 57.10 54.93 50.62 50.95 47.99 46.67 45.71 45.77 46.35 46.70 45.48 43.43 41.80 40.32 39.70 39.47 39.07 39.38 39.59 39.14 37.21 36.87 36.45 35.81 32.29 30.40 31.62 34.20 33.77 33.53 33.61 34.04
54.12 55.55 57.14 57.46 57.58 58.35 58.86 59.30 58.45 57.44 57.37 57.42 55.45 52.76 51.89 49.12 47.47 45.38 44.89 42.12 42.27 41.24 40.75 40.74 40.37 40.11 40.24 39.48 40.65 40.87 39.68 37.84 36.27 37.01 37.44 34.96 34.23 31.45 30.19 32.57 32.61 33.18 34.09
51.68 53.38 55.03 57.67 57.92 56.73 57.63 58.53 58.19 57.93 57.35 57.46 56.43 53.60 51.61 50.61 47.94 44.55 40.01 40.16 39.80 40.38 40.83 40.73 40.61 39.77 40.63 41.98 41.77 39.61 38.14 38.07 37.01 36.58 35.96 33.97 32.23 30.69 29.33 27.58 29.67 31.85 33.13
50.24 51.55 52.80 55.41 56.16 55.92 56.62 57.80 58.82 58.07 57.55 56.77 54.66 52.95 49.72 48.99 46.33 42.58 39.26 40.47 38.25 39.27 39.56 39.63 39.21 40.97 42.84 41.04 40.26 38.90 38.25 37.60 36.96 37.15 35.66 34.33 32.24 30.80 28.92 27.16 27.54 27.86 30.86
49.39 51.30 52.78 54.22 55.92 55.76 56.94 57.96 59.14 57.64 57.62 56.30 54.70 52.28 51.50 49.30 46.64 41.87 39.74 37.88 38.01 38.86 38.33 39.23 39.63 40.83 42.53 42.03 39.73 38.51 38.06 37.10 36.45 35.77 35.52 34.74 33.93 33.38 31.45 29.13 28.38 27.50 28.77
49.96 52.51 54.71 55.29 56.07 56.44 56.84 58.13 58.17 57.63 55.88 55.80 53.87 52.45 50.43 48.91 47.38 41.50 40.46 40.16 39.92 39.88 40.33 40.81 39.50 40.49 41.36 39.92 40.30 39.25 37.50 37.37 36.50 35.39 34.92 34.86 34.52 33.50 32.09 30.66 28.70 26.77 27.30
48.56 52.17 55.19 56.23 56.30 56.46 56.82 57.83 56.82 56.62 53.98 52.93 50.87 49.06 47.91 46.71 43.34 43.52 41.26 40.36 41.23 40.73 40.86 40.84 41.17 40.44 38.58 38.82 39.10 39.16 38.04 37.57 36.16 35.62 35.18 34.27 34.49 33.68 33.00 31.79 30.54 28.95 27.47
49.68 52.04 54.85 56.10 56.64 57.15 57.79 56.38 54.78 52.65 51.49 49.64 47.55 46.16 45.73 45.68 44.46 41.91 40.72 41.27 41.81 40.96 41.00 40.96 39.99 39.10 38.59 38.48 38.29 37.50 37.71 36.94 36.04 35.58 34.13 33.73 33.60 32.87 32.45 31.41 31.56 30.34 28.26
49.89 51.96 53.89 55.12 54.90 54.56 51.78 52.03 49.28 47.16 45.53 45.72 44.43 43.21 43.30 43.18 43.84 42.97 42.70 41.04 41.15 41.46 41.22 39.95 39.24 38.40 37.93 37.92 36.91 37.12 36.55 34.76 33.76 34.09 33.91 33.63 33.38 32.66 31.79 30.71 30.16 28.74 27.68
49.86 51.02 51.85 51.58 51.15 51.49 50.33 50.11 46.57 44.36 43.68 42.86 43.08 43.21 43.16 43.62 42.00 41.15 41.14 41.35 40.94 40.61 40.06 39.57 38.25 37.97 38.09 37.48 36.05 34.39 34.44 33.65 33.36 33.36 32.88 33.18 34.64 32.00 30.84 29.38 27.90 26.14 25.16
49.05 50.14 50.24 49.81 50.33 50.08 49.32 48.89 46.17 44.11 44.05 43.12 43.97 42.60 41.27 39.82 39.66 41.22 41.14 40.89 40.09 39.35 38.52 38.31 37.76 37.44 37.62 36.60 35.10 34.42 34.12 33.46 33.17 32.92 32.16 32.16 31.59 30.15 28.66 27.31 25.91 24.79 25.78
48.74 48.67 48.87 48.88 48.14 47.94 48.79 47.61 45.81 43.26 43.83 42.81 42.29 41.25 39.72 39.95 40.36 41.22 40.11 39.95 39.37 38.46 37.87 38.18 37.81 37.80 37.79 36.93 36.15 34.85 33.39 32.99 32.69 32.82 32.05 31.60 30.90 29.78 28.03 26.49 25.13 24.41 22.87
46.91 47.18 47.31 47.24 47.85 48.37 48.04 47.12 44.63 44.18 44.16 43.48 41.89 40.09 39.82 40.46 40.64 41.39 39.72 39.10 38.78 38.52 38.21 37.93 37.90 38.12 37.81 36.66 35.25 34.21 32.81 31.56 30.91 31.21 30.99 31.09 31.26 32.95 28.81 25.97 24.42 22.89 21.95
45.47 45.66 45.43 46.06 47.44 48.11 47.37 47.02 44.96 43.99 43.80 42.62 40.92 42.51 42.21 41.75 39.79 39.27 39.16 38.68 38.24 38.03 37.81 37.18 37.27 37.36 37.27 36.25 36.88 35.34 31.89 31.05 30.17 29.26 29.04 28.44 32.23 32.57 34.13 33.38 29.85 25.49 22.65
40.97 41.81 43.42 44.73 45.17 45.90 46.80 44.90 44.19 43.58 42.11 40.74 41.61 41.93 41.99 40.30 38.54 38.63 37.97 37.45 37.12 37.59 37.69 38.09 37.74 36.90 36.21 36.13 36.47 36.24 31.72 30.12 29.76 28.87 28.41 27.71 27.79 29.52 27.90 31.38 31.26 29.32 28.59
37.87 36.88 37.10 38.72 39.81 43.30 42.80 41.43 40.82 39.79 39.31 39.23 39.51 40.27 38.89 38.18 38.98 38.16 37.61 37.84 38.35 38.43 38.23 37.40 36.52 35.45 34.78 35.35 35.78 35.16 31.87 29.38 28.75 28.01 27.61 26.81 26.54 26.19 26.13 25.54 24.64 23.90 23.98
35.10 34.40 35.48 36.05 35.94 36.07 36.47 36.37 35.76 36.18 36.53 36.28 37.03 37.92 38.98 38.57 38.63 37.77 38.12 38.48 38.27 37.69 36.77 36.36 35.40 33.51 32.16 34.29 34.65 34.00 29.50 27.97 27.58 27.91 27.69 27.00 26.08 28.52 31.10 25.17 23.50 23.22 23.40
34.76 34.95 35.60 35.50 35.21 34.92 35.75 34.92 34.34 34.74 34.76 36.26 37.49 38.89 39.37 38.68 38.26 38.48 38.15 38.41 37.49 36.08 35.58 33.20 32.27 31.97 30.30 32.75 34.13 34.11 27.06 26.47 27.05 26.81 27.81 31.37 27.57 29.63 30.40 26.78 23.69 21.42 22.89
34.87 35.40 34.91 34.01 33.95 34.94 35.77 35.37 36.32 36.47 37.92 38.77 39.11 40.14 40.67 39.88 39.02 38.26 38.00 37.48 36.43 33.36 30.24 29.47 29.20 29.20 30.03 30.08 33.29 34.24 28.42 27.64 27.19 28.02 27.92 27.85 30.67 31.80 31.36 30.38 24.26 22.79 23.91
34.34 34.95 34.43 34.20 35.09 35.62 37.00 36.10 36.40 37.84 38.73 39.75 40.23 39.76 39.38 38.90 38.35 35.98 33.89 31.54 30.34 29.24 28.50 26.28 28.44 28.43 29.10 30.87 31.53 33.32 33.41 30.74 27.01 27.14 27.58 28.10 30.19 31.28 31.67 30.29 28.82 27.97 25.66
32.47 33.12 33.68 33.96 34.96 35.47 35.89 35.09 36.13 36.80 35.25 33.99 32.76 32.28 32.66 32.20 31.68 30.70 30.17 29.47 28.40 25.51 26.96 27.52 27.64 28.44 29.31 28.55 31.32 32.32 32.74 32.51 29.25 28.13 27.94 29.07 29.98 31.04 30.60 31.12 29.87 27.82 25.44
31.67 32.32 32.54 31.71 31.31 32.59 32.75 32.23 32.19 31.41 31.01 30.19 29.88 29.92 29.69 29.93 29.54 29.36 29.44 28.19 26.06 26.01 28.12 28.03 28.12 28.52 29.06 27.09 27.88 27.61 27.95 29.09 29.67 28.77 29.66 27.10 27.19 28.51 29.36 27.85 29.27 28.40 25.68
32.08 31.94 31.51 31.15 30.05 31.14 31.06 31.26 30.69 30.39 29.96 30.03 29.78 29.16 27.85 27.92 28.22 28.62 28.35 28.40 28.61 29.03 28.83 28.92 28.51 28.29 28.47 30.15 30.90 30.01 27.52 26.59 27.60 23.17 26.54 27.35 26.13 25.56 25.36 25.68 25.98 26.10 23.81
31.75 31.97 30.97 30.44 30.11 30.23 29.84 30.09 29.85 29.35 28.62 28.48 27.98 26.72 26.24 25.36 27.26 27.55 27.07 30.48 31.62 32.04 32.59 32.74 31.48 31.31 32.39 32.85 32.89 32.84 33.12 32.76 30.92 27.15 26.63 26.00 25.52 24.08 23.89 24.08 24.59 24.94 23.97
MSLP
1015.04 1015.73 1016.15 1016.47 1017.11 1017.61 1017.90 1018.25 1018.82 1019.17 1019.64 1020.25 1021.12 1021.85 1021.79 1022.05 1022.50 1022.50 1022.73 1023.19 1023.47 1023.98 1024.60 1025.05 1025.55 1025.69 1026.08 1026.54 1026.75 1027.18 1027.48 1027.62 1027.34 1027.46 1027.95 1028.03 1027.98 1027.99 1027.99 1027.75 1027.58 1027.41 1027.45
1015.07 1015.30 1015.97 1016.32 1016.60 1016.83 1017.26 1017.77 1018.32 1018.92 1019.47 1019.78 1020.35 1020.82 1021.69 1022.23 1022.25 1022.56 1022.94 1023.27 1023.78 1024.33 1024.76 1025.05 1025.60 1025.85 1026.31 1026.94 1027.11 1026.95 1027.18 1027.66 1027.70 1027.88 1028.18 1028.47 1028.31 1028.19 1028.09 1027.93 1027.81 1027.92 1027.76
1014.42 1014.67 1015.25 1015.55 1015.91 1016.28 1016.56 1017.04 1017.59 1018.29 1018.96 1019.65 1020.20 1020.83 1021.51 1022.08 1022.61 1022.95 1023.26 1023.66 1023.91 1024.33 1024.69 1025.17 1025.71 1026.24 1026.73 1027.11 1027.07 1026.68 1026.50 1027.36 1027.95 1027.95 1028.13 1028.76 1028.96 1028.78 1028.38 1028.26 1028.15 1028.15 1028.02
1013.58 1014.06 1014.38 1014.85 1015.16 1015.81 1016.34 1016.75 1017.04 1017.60 1018.38 1019.01 1019.66 1020.12 1020.67 1021.68 1022.38 1022.84 1023.58 1024.07 1024.13 1024.47 1024.95 1025.41 1025.84 1026.16 1026.42 1026.77 1026.58 1026.54 1026.88 1026.98 1027.97 1028.18 1028.08 1028.30 1028.67 1029.02 1029.07 1028.60 1028.35 1028.20 1028.02
1013.09 1013.32 1013.62 1014.19 1014.74 1015.06 1015.59 1016.60 1017.62 1017.95 1018.48 1018.50 1019.08 1019.83 1020.79 1021.37 1022.21 1023.10 1023.82 1024.26 1024.46 1024.60 1025.04 1025.42 1025.71 1026.00 1025.96 1026.13 1025.90 1026.42 1026.91 1027.35 1027.91 1028.29 1028.34 1028.52 1028.82 1029.04 1029.40 1029.20 1028.75 1028.33 1027.96
1012.62 1012.78 1013.01 1013.70 1014.20 1014.78 1015.52 1016.61 1017.08 1017.47 1018.06 1018.39 1018.87 1019.61 1020.55 1021.55 1022.44 1023.28 1023.82 1024.22 1024.43 1024.85 1025.25 1025.46 1025.56 1025.46 1025.34 1025.66 1025.93 1026.52 1026.90 1027.39 1027.71 1028.10 1028.31 1028.52 1028.75 1028.89 1029.16 1029.37 1029.04 1028.89 1028.24
1011.85 1012.46 1012.89 1013.21 1013.66 1014.20 1014.95 1015.88 1016.40 1017.08 1017.50 1018.05 1018.68 1019.24 1019.84 1020.85 1021.55 1022.34 1023.08 1023.81 1024.30 1024.74 1025.01 1025.05 1024.82 1025.07 1025.23 1025.56 1025.86 1026.49 1026.89 1027.23 1027.51 1027.81 1027.93 1027.97 1028.09 1028.25 1028.52 1028.83 1028.95 1029.01 1028.60
1010.88 1011.44 1011.85 1012.39 1013.03 1013.69 1014.43 1015.35 1015.99 1016.68 1017.23 1017.66 1018.26 1018.62 1019.28 1020.10 1020.88 1021.52 1022.19 1022.60 1022.97 1023.34 1023.80 1024.13 1024.44 1024.59 1024.66 1025.29 1025.79 1026.28 1026.85 1027.09 1027.47 1027.72 1027.81 1027.83 1027.83 1027.94 1028.03 1028.32 1028.75 1028.95 1028.78
1010.69 1010.78 1011.24 1011.70 1012.44 1012.96 1013.65 1014.45 1015.31 1016.16 1016.70 1017.13 1017.69 1018.28 1018.94 1019.53 1020.13 1020.94 1021.49 1021.94 1022.43 1022.93 1023.57 1023.91 1023.97 1024.15 1024.34 1025.05 1025.65 1026.10 1026.54 1026.85 1027.21 1027.28 1027.40 1027.62 1027.62 1027.73 1027.80 1027.94 1028.11 1028.35 1028.66
1011.00 1010.98 1011.15 1011.44 1011.98 1012.36 1013.14 1014.13 1014.83 1015.45 1016.18 1016.67 1017.14 1017.68 1018.22 1018.83 1019.74 1020.46 1021.02 1021.67 1022.27 1022.63 1023.29 1023.70 1024.08 1024.19 1024.46 1025.01 1025.53 1025.96 1026.19 1026.61 1026.76 1026.92 1027.15 1027.22 1027.20 1027.28 1027.35 1027.50 1027.71 1027.93 1028.17
1010.92 1011.14 1011.36 1011.62 1012.01 1012.47 1013.01 1013.84 1014.39 1014.99 1015.62 1016.27 1017.00 1017.58 1018.19 1018.77 1019.51 1020.19 1020.73 1021.11 1021.78 1022.42 1022.90 1023.36 1023.85 1024.22 1024.62 1024.89 1025.43 1025.79 1026.00 1026.31 1026.40 1026.53 1026.64 1026.67 1026.79 1026.95 1027.11 1027.31 1027.45 1027.72 1028.02
1010.78 1011.29 1011.57 1011.93 1012.16 1012.42 1012.89 1013.37 1014.40 1015.09 1015.60 1016.24 1016.98 1017.76 1018.34 1018.64 1019.08 1019.63 1020.14 1020.81 1021.49 1022.04 1022.47 1023.09 1023.65 1024.04 1024.34 1024.56 1024.91 1025.19 1025.53 1025.81 1025.97 1025.98 1026.15 1026.20 1026.37 1026.55 1026.70 1026.95 1027.12 1027.37 1027.57
1010.76 1011.27 1011.56 1011.83 1012.17 1012.74 1013.32 1014.04 1014.78 1015.17 1015.77 1016.34 1016.85 1017.49 1017.89 1018.23 1018.65 1019.28 1019.95 1020.62 1021.21 1021.68 1022.31 1022.85 1023.33 1023.69 1023.87 1024.18 1024.64 1024.77 1024.99 1025.19 1025.28 1025.42 1025.63 1025.62 1025.98 1026.28 1026.47 1026.59 1026.82 1027.04 1027.24
1010.69 1011.22 1011.57 1011.76 1012.45 1013.00 1013.57 1014.25 1014.59 1014.93 1015.49 1016.10 1016.68 1017.23 1017.55 1017.88 1018.42 1019.04 1019.90 1020.56 1021.17 1021.80 1022.44 1022.73 1023.05 1023.27 1023.72 1024.07 1024.19 1024.33 1024.43 1024.52 1024.68 1024.83 1025.16 1025.27 1025.47 1025.57 1025.80 1026.11 1026.33 1026.64 1027.00
1010.93 1011.36 1011.77 1012.33 1012.75 1013.22 1013.73 1014.32 1014.78 1015.33 1015.79 1016.32 1016.77 1017.12 1017.93 1018.33 1018.72 1019.39 1019.98 1020.69 1021.32 1021.83 1022.41 1022.96 1023.12 1023.46 1023.60 1023.61 1023.63 1023.77 1024.00 1024.12 1024.24 1024.45 1024.69 1024.79 1024.85 1024.81 1025.15 1025.48 1025.79 1026.24 1026.60
1011.43 1011.75 1012.19 1012.55 1013.01 1013.46 1013.77 1014.11 1014.54 1014.93 1015.45 1016.20 1017.09 1017.61 1018.17 1018.57 1019.00 1019.53 1020.05 1020.59 1021.11 1021.61 1022.24 1022.99 1023.17 1023.43 1023.40 1023.30 1023.12 1023.18 1023.37 1023.44 1023.67 1023.95 1024.07 1024.24 1024.21 1024.34 1024.41 1024.65 1025.03 1025.57 1025.95
1012.66 1012.95 1013.14 1013.21 1013.39 1013.53 1013.78 1014.37 1014.92 1015.42 1015.94 1016.52 1017.15 1017.73 1018.42 1019.10 1019.48 1019.83 1020.28 1020.77 1021.52 1021.98 1021.92 1022.51 1023.22 1023.24 1023.19 1022.93 1022.70 1022.52 1022.72 1022.85 1022.94 1023.21 1023.53 1023.89 1024.02 1024.11 1024.34 1024.31 1024.56 1024.92 1025.15
1014.08 1014.31 1014.64 1014.69 1014.58 1014.38 1014.60 1014.88 1015.32 1015.86 1016.47 1017.16 1017.73 1018.27 1018.84 1019.57 1020.23 1020.92 1021.45 1021.78 1022.02 1022.18 1022.51 1022.91 1023.18 1023.08 1022.82 1022.53 1022.28 1022.10 1022.17 1022.27 1022.30 1022.54 1022.86 1023.23 1023.40 1023.64 1023.83 1024.06 1024.36 1024.60 1024.87
1015.66 1015.98 1015.86 1015.65 1015.60 1015.59 1015.90 1016.20 1016.81 1017.27 1017.67 1018.30 1018.72 1019.18 1019.57 1020.08 1020.72 1021.26 1021.81 1022.12 1022.33 1022.18 1022.89 1022.77 1022.79 1022.66 1022.36 1022.20 1021.91 1021.78 1021.76 1021.88 1021.95 1022.04 1022.25 1022.48 1022.72 1022.84 1023.02 1023.49 1023.83 1024.07 1024.23
1016.40 1016.45 1016.63 1016.80 1016.84 1017.14 1017.13 1017.28 1018.10 1018.50 1019.02 1019.43 1019.75 1020.05 1020.54 1021.08 1021.56 1021.56 1021.84 1022.03 1022.41 1022.41 1022.39 1022.42 1022.35 1022.26 1022.08 1021.85 1021.52 1021.43 1021.52 1021.79 1021.66 1021.61 1021.67 1021.84 1021.97 1022.16 1022.35 1022.71 1023.19 1023.55 1023.53
1017.12 1017.41 1017.60 1017.86 1018.20 1018.31 1018.34 1018.62 1019.04 1019.55 1020.00 1020.14 1020.35 1020.58 1020.79 1021.17 1021.52 1021.60 1021.82 1021.97 1022.11 1022.24 1022.28 1022.31 1022.07 1021.94 1021.74 1021.41 1021.06 1020.97 1021.13 1021.15 1021.14 1021.10 1021.06 1021.17 1021.26 1021.41 1021.59 1021.84 1022.30 1022.55 1022.77
1017.93 1018.17 1018.33 1018.76 1019.01 1019.10 1019.21 1019.87 1020.30 1020.59 1020.55 1020.58 1020.72 1020.95 1021.22 1021.45 1021.72 1021.93 1022.07 1022.17 1022.26 1022.32 1022.22 1022.12 1021.81 1021.39 1021.05 1020.82 1020.58 1020.39 1020.34 1020.28 1020.51 1020.34 1020.20 1020.13 1020.16 1020.49 1020.82 1021.08 1021.26 1021.68 1022.09
1018.43 1018.81 1018.92 1019.44 1019.89 1020.09 1020.27 1020.64 1021.10 1021.07 1021.26 1021.42 1021.59 1021.91 1021.98 1022.12 1022.25 1022.33 1022.35 1022.31 1022.24 1022.19 1022.02 1021.85 1021.43 1020.83 1020.41 1020.14 1019.92 1019.68 1019.39 1019.42 1019.64 1019.45 1019.28 1019.38 1019.61 1019.74 1020.01 1020.09 1020.31 1020.83 1021.23
1018.93 1019.30 1019.60 1020.22 1020.84 1021.09 1021.27 1021.54 1021.74 1021.80 1021.93 1022.20 1022.39 1022.50 1022.58 1022.55 1022.47 1022.41 1022.34 1022.29 1022.07 1021.91 1021.67 1021.35 1020.96 1020.39 1019.84 1019.62 1019.26 1018.92 1018.64 1018.58 1018.62 1018.47 1018.50 1018.54 1018.70 1018.90 1018.99 1019.29 1019.59 1019.90 1020.16
1019.56 1019.89 1020.35 1021.01 1021.62 1021.90 1022.12 1022.27 1022.29 1022.27 1022.61 1022.87 1023.08 1023.15 1023.12 1022.99 1022.77 1022.57 1022.45 1022.23 1021.95 1021.82 1021.47 1021.14 1020.74 1020.28 1019.26 1018.70 1018.36 1017.98 1017.73 1017.59 1017.48 1017.60 1017.85 1018.00 1018.13 1018.17 1018.29 1018.48 1018.65 1019.01 1019.41
1020.14 1020.60 1021.26 1021.84 1022.49 1022.71 1022.95 1023.10 1023.16 1023.17 1023.35 1023.59 1023.75 1023.83 1023.75 1023.57 1023.27 1022.91 1022.32 1022.13 1021.70 1021.35 1021.09 1020.72 1020.40 1019.50 1019.09 1018.29 1017.76 1017.37 1016.87 1016.58 1016.34 1016.69 1016.67 1016.75 1017.04 1017.29 1017.31 1017.47 1017.64 1017.81 1018.22
Wind_Speed
12 7 8 8 8 8 8 9 9 8 8 4 4 3 4 2 2 3 6 6 6 6 6 5 5 5 5 4 2 2 2 2 2 2 2 3 4 5 3 3 4 5 4
8 9 9 9 11 12 11 10 10 11 10 8 3 4 4 2 3 3 5 6 7 6 6 6 5 6 5 4 2 4 3 2 3 3 2 3 3 3 2 2 2 3 3
12 12 13 14 13 15 15 14 13 13 12 9 6 4 4 4 3 2 4 3 6 7 7 7 6 6 4 4 3 3 5 4 3 4 4 2 2 2 2 2 2 3 2
9 10 13 13 14 12 10 12 14 15 11 11 9 8 7 6 3 4 3 4 6 7 7 7 6 6 5 4 3 3 3 4 2 1 2 2 3 3 4 2 3 3 3
13 13 14 13 10 11 12 8 6 8 9 11 10 7 5 4 3 5 7 6 5 7 7 7 6 5 4 4 5 5 5 3 3 2 1 1 2 2 2 3 4 3 3
11 10 9 8 8 7 8 10 10 12 9 11 9 9 10 8 7 5 6 4 4 4 5 6 6 6 5 5 5 5 5 3 3 2 2 3 3 3 3 3 4 3 3
12 11 12 12 10 12 12 12 14 12 11 11 10 11 12 13 13 12 8 9 6 4 6 6 6 4 5 4 5 5 4 4 3 4 4 3 4 3 3 3 3 3 2
13 14 15 14 13 12 11 12 14 11 10 11 10 9 11 9 9 11 11 9 9 8 10 7 6 6 6 6 4 3 3 4 3 5 4 3 3 3 3 3 3 2 2
11 14 11 13 12 12 14 15 13 12 10 10 9 10 10 12 12 12 10 8 8 6 6 6 7 6 7 6 5 3 4 4 4 5 5 3 3 3 3 3 3 4 2
7 7 9 10 9 10 10 9 11 13 12 10 10 10 11 10 10 11 10 9 8 9 7 6 5 5 5 5 5 3 4 5 4 4 5 4 3 4 4 3 3 3 4
7 6 7 7 7 6 7 11 10 10 9 9 7 8 8 9 10 9 10 11 10 8 8 7 6 6 5 6 5 6 6 6 6 4 5 6 4 4 3 3 3 3 3
7 6 6 5 6 8 7 7 5 7 7 6 6 6 8 10 11 11 11 11 10 7 8 7 6 6 5 6 6 7 6 7 6 7 5 6 4 5 5 3 4 3 3
6 7 7 8 8 5 5 5 6 7 7 7 9 8 9 10 11 10 10 9 8 8 7 7 7 7 7 6 7 7 7 7 7 6 7 6 6 4 4 4 4 3 3
7 6 6 6 5 6 5 4 5 6 8 8 8 10 10 10 9 8 7 7 6 7 5 6 6 6 3 4 6 6 7 7 7 6 7 6 7 7 6 5 5 4 3
5 5 4 4 6 5 5 5 4 5 4 5 7 6 3 4 6 6 6 6 6 5 4 3 3 1 2 5 7 6 7 7 7 6 6 6 8 11 8 4 5 4 3
2 2 2 4 5 6 6 7 8 9 9 7 5 5 5 5 6 7 7 6 7 7 6 3 4 4 4 9 12 9 7 7 7 8 7 6 9 8 10 12 10 8 5
8 9 8 6 2 3 5 4 3 5 5 6 6 7 7 5 6 8 9 9 6 4 5 3 3 5 6 10 11 10 6 7 8 8 6 5 4 7 5 7 9 9 10
8 8 6 5 6 5 7 7 6 7 7 7 7 7 9 10 8 8 7 6 4 5 4 3 5 5 7 10 11 11 6 6 7 7 7 6 7 7 7 6 5 6 5
6 4 4 6 8 10 9 12 11 10 11 10 10 10 10 10 8 7 5 3 3 1 3 4 6 7 7 10 12 8 5 6 7 6 7 8 7 11 13 6 7 6 6
5 7 8 7 9 8 9 13 12 12 12 10 10 10 9 8 5 4 3 2 2 4 4 5 5 7 7 10 12 7 3 5 5 5 6 13 10 13 14 8 7 7 7
8 8 10 10 8 7 10 13 13 12 8 7 6 6 5 5 3 2 1 3 4 4 5 5 6 6 6 7 12 11 5 6 5 6 6 7 16 16 16 15 9 9 6
9 9 11 10 8 8 11 11 10 5 5 5 6 6 5 4 3 3 3 4 4 5 6 5 6 5 6 9 10 12 13 11 7 7 7 8 16 18 17 13 15 17 8
8 6 10 11 9 8 8 10 5 6 6 7 6 5 4 4 4 3 5 4 4 3 5 5 6 8 5 5 12 13 13 14 9 8 10 12 14 15 14 19 17 12 6
8 7 11 11 10 8 9 7 6 6 6 6 6 5 5 6 5 3 3 3 4 4 6 6 7 8 8 5 6 6 6 8 9 10 9 8 7 10 10 9 11 8 7
6 7 10 10 9 9 10 9 8 7 7 7 6 6 4 5 5 4 4 4 5 5 7 7 6 8 11 10 12 11 6 6 9 4 4 5 5 6 7 7 8 7 6
8 9 10 11 9 10 10 9 9 7 7 6 5 4 4 3 4 5 7 5 10 13 14 15 12 10 15 23 24 23 22 20 15 6 6 8 7 8 8 8 8 8 9
Wind_Direction
220 191 184 175 170 179 176 174 161 162 149 141 144 156 155 125 140 132 133 128 121 119 115 104 100 86 89 88 96 115 132 42 21 72 35 12 40 40 28 35 39 43 38
196 193 181 182 190 194 191 175 176 167 175 173 148 142 143 143 118 116 100 117 121 115 114 115 110 103 97 99 157 180 132 85 3 121 118 19 341 11 7 24 29 32 18
196 200 192 190 190 196 193 187 178 175 178 170 131 87 86 66 75 90 101 115 120 122 116 105 103 110 124 149 182 142 114 122 38 58 126 36 268 328 328 318 354 349 2
216 205 196 198 200 198 189 190 181 174 173 166 164 169 169 154 168 135 118 121 116 106 110 121 121 131 142 135 132 112 90 99 107 8 70 93 145 200 319 331 304 318 260
206 208 205 204 199 175 187 175 154 173 181 172 174 164 134 109 122 117 126 118 111 122 123 126 141 137 133 134 117 91 92 83 124 174 162 55 42 91 161 279 305 329 276
201 205 204 180 179 170 155 141 155 202 185 178 163 156 139 139 142 146 144 148 124 114 129 141 145 145 135 119 100 104 106 132 132 159 162 170 183 206 197 229 258 240 288
181 182 185 188 185 179 173 168 192 203 185 177 168 163 161 167 169 165 160 154 152 158 168 169 152 128 126 126 123 128 149 167 165 193 203 195 207 175 185 169 248 248 286
190 186 191 187 191 183 180 168 195 198 183 181 180 168 166 174 178 172 166 169 166 164 169 164 147 150 138 131 150 142 171 176 208 216 218 226 236 201 187 184 168 277 272
199 199 188 187 177 182 187 182 185 190 188 184 174 175 170 174 176 176 170 164 158 153 154 162 168 167 129 151 157 175 196 187 211 228 227 225 250 225 206 186 179 177 259
198 195 192 188 183 193 185 182 181 183 189 179 180 179 184 173 168 163 160 157 161 161 169 159 159 149 151 164 173 195 202 196 218 215 223 225 221 209 196 200 200 190 195
203 195 192 193 183 178 175 179 181 177 175 171 163 160 165 156 156 164 169 168 161 167 166 165 169 171 167 176 185 207 198 210 226 224 226 239 211 206 197 198 190 202 177
195 199 189 187 189 191 184 190 163 148 152 150 139 153 157 162 165 174 170 166 167 162 163 165 174 181 187 191 190 196 207 215 220 232 215 224 203 217 203 195 210 205 195
191 180 175 191 200 191 161 162 152 165 148 144 158 166 176 172 177 172 167 164 158 165 161 164 181 190 202 194 213 213 219 222 222 214 206 214 201 222 211 211 213 208 217
218 198 186 190 152 154 178 180 170 162 161 162 173 186 187 183 179 161 155 157 155 152 165 188 188 203 214 234 232 226 229 228 223 213 211 208 208 214 211 208 214 209 211
221 216 193 160 155 165 169 154 154 150 155 179 202 199 148 139 128 131 129 125 137 158 165 178 189 318 310 256 242 232 233 224 220 213 220 220 221 218 204 187 214 193 201
357 258 243 178 185 176 191 186 181 180 168 175 175 153 142 124 126 133 136 135 144 152 142 99 38 326 283 265 261 234 223 214 203 212 219 219 225 232 228 222 208 192 187
50 41 30 26 4 225 202 196 131 119 135 130 129 119 120 117 116 122 122 126 117 97 89 70 261 279 271 268 268 252 223 211 210 209 208 209 219 221 220 221 198 205 219
44 34 23 33 25 37 59 77 84 100 102 90 95 101 109 105 96 85 75 65 72 61 42 281 265 277 271 274 280 267 229 219 215 202 201 202 211 212 198 197 210 217 224
56 54 34 38 41 52 63 72 65 71 78 80 86 94 102 99 94 88 89 62 39 303 235 237 251 252 276 286 288 270 223 227 228 208 202 205 211 220 216 197 219 225 234
53 54 44 53 60 50 78 86 83 83 81 84 82 78 77 78 79 88 130 79 217 243 244 254 264 270 273 281 287 267 189 235 234 220 220 223 213 221 217 204 205 224 236
73 68 66 65 57 60 83 84 90 87 95 98 105 109 112 112 123 44 179 239 266 275 277 276 278 272 256 274 289 273 208 228 234 228 221 220 228 225 223 213 197 213 207
81 75 82 73 62 62 84 80 72 62 65 71 65 55 50 41 27 335 311 296 282 281 279 279 283 262 262 258 270 273 240 229 225 232 232 228 220 221 227 222 215 220 218
87 79 87 80 64 62 70 80 58 59 59 59 58 49 27 6 348 321 307 305 296 268 276 274 283 283 268 266 264 263 255 246 233 233 231 222 226 225 236 225 219 218 206
93 92 92 85 75 61 60 64 57 54 60 55 40 27 17 356 351 329 302 293 287 285 280 279 280 283 282 258 254 254 251 246 239 244 239 228 226 224 222 220 227 220 208
90 89 91 86 75 67 56 43 37 47 50 47 34 25 17 5 344 330 296 292 269 256 290 288 280 288 288 280 251 245 241 225 232 219 210 225 218 220 216 220 215 215 211
98 87 84 85 75 69 59 46 38 46 50 44 24 7 355 343 338 331 324 303 296 301 296 289 281 291 278 289 288 278 273 257 235 204 214 224 221 223 223 224 225 216 216